Regional Weather Roundup
Issued by NWS

Home | Current Version | Previous Version | Graphics & Text | Print | Product List | Glossary Off
Versions: 1 2 3 4 5 6 7 8 9 10 11 12 13 14 15 16 17 18 19 20 21 22 23 24 25 26 27 28 29 30 31 32 33 34 35 36 37 38 39 40 41 42 43 44 45 46 47 48 49 50

000
ASUS43 KMKX 290211
RWRWI

WISCONSIN REGIONAL WEATHER ROUNDUP
NATIONAL WEATHER SERVICE MILWAUKEE/SULLIVAN WI
800 PM CST WED JAN 28 2015

NOTE: "FAIR" INDICATES FEW OR NO CLOUDS BELOW 12,000 FEET WITH NO
SIGNIFICANT WEATHER AND/OR OBSTRUCTIONS TO VISIBILITY.

WIZ001-002-006>008-014>016-023>028-290300-
NORTHWEST WISCONSIN

CITY           SKY/WX    TMP DP  RH WIND       PRES   REMARKS
SUPERIOR ARPT  CLOUDY    31  25  81 SW3       29.86S
ASHLAND        CLOUDY    30  23  75 S9        29.86S WCI  22
HAYWARD        CLOUDY    27  22  81 SE3       29.84F HAZE
SIREN          CLOUDY    30  26  87 CALM      29.85S FOG
CUMBERLAND     CLOUDY    28  25  86 E3        29.83S FOG
RICE LAKE      CLOUDY    28  25  86 E5        29.85S FOG     WCI  23
CHETEK         CLOUDY    28  25  87 E3        29.84S
LADYSMITH      CLOUDY    27  24  87 CALM      29.86S FOG
EAU CLAIRE     CLOUDY    29  23  78 E6        29.82F WCI  23
MENOMONIE      CLOUDY    30  26  86 NE6       29.83F FOG     WCI  24
NEW RICHMOND   CLOUDY    30  26  84 CALM      29.83R FOG
OSCEOLA        CLOUDY    31  29  93 CALM      29.86S FOG
$$

WIZ003>005-009-010-017-018-290300-
NORTH CENTRAL WISCONSIN

CITY           SKY/WX    TMP DP  RH WIND       PRES   REMARKS
MANITOWISH WTR CLOUDY    27  21  79 S7        29.82S WCI  19
ARBOR VITAE    CLOUDY    29  23  77 S8        29.83S WCI  21
WOODRUFF       CLOUDY    29  23  77 S8        29.83S WCI  21
RHINELANDER    CLOUDY    27  19  72 S7        29.84S WCI  19
EAGLE RIVER    CLOUDY    27  19  72 S7        29.83S WCI  20
LAND O LAKES   CLOUDY    28  21  75 S8        29.83S WCI  20
PHILLIPS       CLOUDY    27  21  77 S5        29.82F WCI  22
TOMAHAWK       CLOUDY    27  20  76 CALM      29.85S
MEDFORD        CLOUDY    27  20  77 SE13      29.82F WCI  16
MERRILL        CLOUDY    28  21  76 SE7       29.86S WCI  20
$$

WIZ029-030-035-036-043>047-290300-
CENTRAL WISCONSIN

CITY           SKY/WX    TMP DP  RH WIND       PRES   REMARKS
WAUSAU         CLOUDY    28  20  71 SE7       29.85R WCI  21
MOSINEE        MOCLDY    27  21  80 SE6       29.87R WCI  20
MARSHFIELD     CLOUDY    29  20  69 SE10      29.84F WCI  20
STEVENS POINT  CLOUDY    26  19  75 E5        29.87S WCI  21
WAUPACA        MOCLDY    29  22  73 SE6       29.89S WCI  23
WAUTOMA        MOCLDY    29  21  71 E5        29.87F WCI  24
WISC RAPIDS    CLOUDY    28  19  69 SE5       29.87S WCI  23
CAMP DOUGLAS   CLOUDY    30  28  93 E6        29.83F WCI  24
$$

WIZ011>013-019>022-031-037>040-048>050-290300-
NORTHEAST WISCONSIN

CITY           SKY/WX    TMP DP  RH WIND       PRES   REMARKS
ANTIGO         CLOUDY    25  22  85 SE12      29.86R WCI  15
SHAWANO        CLOUDY    31  24  74 SE6       29.91S WCI  25
OCONTO         CLOUDY    30  26  84 CALM      29.92F
STURGEON BAY   CLOUDY    30  21  69 S17       29.94F WCI  18
GREEN BAY      CLOUDY    30  24  78 SE12      29.91F WCI  20
MANITOWOC      CLOUDY    33  25  72 S21       29.93F WCI  21
APPLETON       MOCLDY    28  21  74 SE13      29.89F WCI  18
CLINTONVILLE   MOCLDY    28  21  74 SE6       29.90S WCI  22
OSHKOSH        MOCLDY    30  22  72 S8        29.89S WCI  22
$$

WIZ032>034-041-042-053>061-290300-
SOUTHWEST WISCONSIN

CITY           SKY/WX    TMP DP  RH WIND       PRES   REMARKS
LA CROSSE      CLOUDY    34  24  67 SE6       29.82F WCI  29
SPARTA         CLOUDY    32  25  73 SE3       29.84S
VIROQUA        CLOUDY    31  26  84 SE13      29.78F WCI  21
BOSCOBEL       CLOUDY    33  26  75 VRB5      29.83F WCI  29
PRAIRIE DU CHI CLOUDY    32  26  77 E8        29.80F WCI  25
PLATTEVILLE    CLOUDY    32  29  88 E10       29.82F WCI  24
$$

WIZ056-057-062-063-064-067-068-290300-
SOUTH CENTRAL WISCONSIN

CITY           SKY/WX    TMP DP  RH WIND       PRES   REMARKS
REEDSBURG      CLOUDY    31  25  78 S6        29.84F WCI  25
BARABOO/DELLS  CLOUDY    30  24  77 S9        29.84F WCI  22
LONE ROCK      CLOUDY    32  26  78 SE12      29.84F WCI  23
MINERAL POINT  CLOUDY    32  30  93 SE13G22   29.82F WCI  22
MADISON        CLOUDY    31  23  72 S15       29.87F WCI  20
MIDDLETON      CLOUDY    33  25  73 S15       29.87F WCI  23
WATERTOWN      CLOUDY    30  22  72 S6        29.91R WCI  24
MONROE         MOCLDY    30  28  93 SE14      29.85S WCI  20
JANESVILLE     CLEAR     34  25  69 SE12G17   29.90R WCI  25
$$

WIZ051-052-058>065-066-070>072-290300-
SOUTHEAST WISCONSIN

CITY           SKY/WX    TMP DP  RH WIND       PRES   REMARKS
MILWAUKEE      CLOUDY    32  22  66 S16G25    29.92F WCI  21
WAUKESHA       CLOUDY    28  21  74 SE13G18   29.91F WCI  18
MILWAUKEE/TIMM CLEAR     30  19  64 S12G18    29.92F WCI  21
RACINE         CLOUDY    32  22  66 S23G30    29.94F WCI  19
BURLINGTON     CLOUDY    30  21  68 S9G16     29.91R WCI  22
KENOSHA        CLOUDY    32  23  69 S20G26    29.91F WCI  20
FOND DU LAC    CLOUDY    31  22  69 S12       29.89S WCI  22
SHEBOYGAN      CLOUDY    32  23  69 S18G25    29.92F WCI  20
WEST BEND      CLOUDY    32  23  69 SE8       29.91R WCI  25
JUNEAU         CLOUDY    30  22  73 S9        29.92R WCI  21
$$

LSZ147-162-290300-
LAKE SUPERIOR

STATION/POSITION TIME  TEMP    WIND        PRES    WAVE
                       AIR SEA DIR/SP/G            HT/PER
                 (UTC) (F)     (DEG/KT/KT) (MB)    (FT/S)
DEVILS ISLAND    0200   32     220/  8/ 10 1011.5S
PORT WING        0100   30      CALM  /  2 1011.2S
SAXON HARBOR     0100   32      CALM  /  5 1011.5R
$$

LMZ867-665-643>646-290300-
LAKE MICHIGAN

STATION/POSITION TIME  TEMP    WIND        PRES    WAVE
                       AIR SEA DIR/SP/G            HT/PER
                 (UTC) (F)     (DEG/KT/KT) (MB)    (FT/S)
NORTHPORT PIER   0110   31     150/ 14/ 25 1015.2F
SISTER BAY       0143   32     170/ 13/ 18   N/A
KEWAUNEE LAKESHO 0100   33     170/ 23/ 29 1013.8F
SHEBOYGAN LAKESH 0200   33     160/ 26/ 30 1014.0F
PORT WASHINGTON  0140   34     160/ 20     1013.9F
MILWAUKEE LAKESH 0100   33     160/ 23/ 27   N/A
KENOSHA   LAKESH 0200   33     160/ 26/ 30 1013.2F
$$

TC  - TEMPERATURE IN CELSIUS
VSB - VISIBILITY IN STATUTE MILES
WCI - WIND CHILL INDEX
HX  - HEAT INDEX



USA.gov is the U.S. government's official web portal to all federal, state and local government web resources and services.